Theta_e
296 291 288 290 292 292 292 289 288 291 295 297 297 297 298 304 308 305 305 304 307 309 310 311 313 313 313 313 314 314 315 315 316 315 315 314 312 312 312 313 316 316 318 320
293 290 294 295 295 293 292 289 289 293 296 296 295 295 298 303 308 308 305 305 304 309 308 309 309 310 309 311 312 313 314 315 315 316 315 315 311 311 311 312 312 317 319 319
291 294 298 296 293 292 292 290 290 291 294 295 295 292 296 300 305 309 310 308 307 308 309 309 309 308 307 307 309 311 313 314 315 315 311 309 311 311 309 309 310 313 318 320
293 298 296 294 293 293 288 295 295 293 290 286 294 284 290 298 300 305 307 308 307 309 311 310 309 308 306 307 309 311 312 313 313 311 309 309 309 308 309 308 310 312 317 320
293 293 293 293 294 296 292 297 295 294 289 288 288 285 288 298 297 301 304 307 308 310 311 310 309 310 308 308 308 310 311 311 312 311 310 308 307 309 309 310 311 312 315 319
296 298 296 295 297 297 299 295 294 292 289 283 288 286 285 292 297 300 304 306 307 310 311 313 312 311 309 308 308 309 310 311 311 311 310 309 308 307 309 311 312 313 313 316
293 295 297 299 294 297 294 289 282 281 281 282 290 288 289 294 299 302 303 305 307 310 310 311 310 310 309 307 307 308 309 309 311 311 311 310 309 308 309 312 313 313 313 313
286 284 294 298 296 292 292 290 283 279 279 282 291 286 290 298 300 301 305 306 307 308 310 311 312 311 310 309 307 308 308 308 310 311 311 312 312 311 311 312 314 314 314 316
285 286 295 297 298 297 292 288 293 286 286 282 286 290 295 299 299 299 301 305 305 307 310 311 312 313 312 310 309 307 308 308 309 309 313 312 313 312 313 314 315 315 316 318
291 285 294 296 297 296 294 295 286 286 280 279 284 286 287 292 296 298 298 300 304 308 309 311 312 313 314 313 311 311 309 309 310 310 312 314 314 315 315 316 316 315 315 316
292 289 289 294 291 290 291 289 290 290 286 282 280 283 294 295 297 298 298 300 304 305 308 310 312 314 315 315 313 311 311 311 311 313 314 315 316 316 317 318 319 316 315 316
297 289 284 289 295 296 293 291 291 286 284 285 282 287 297 297 298 299 299 301 299 304 306 310 310 313 314 314 315 314 313 313 314 316 317 317 318 319 319 319 319 318 318 318
298 291 283 285 290 292 290 291 292 292 289 286 283 286 299 298 298 299 298 298 299 300 303 305 307 309 312 314 315 316 317 316 317 317 317 318 319 319 319 320 320 319 320 319
300 293 290 285 287 291 289 292 293 292 285 284 287 289 294 297 297 298 298 298 298 300 303 303 305 308 311 313 314 315 317 318 318 318 318 318 319 320 320 320 320 320 320 319
297 287 290 290 291 292 291 292 293 290 291 287 289 290 294 297 298 299 301 299 300 299 301 303 304 305 307 309 312 313 315 317 318 318 318 319 320 321 320 320 320 320 319 318
297 287 289 285 292 290 288 291 292 293 292 290 291 290 297 300 299 299 300 300 300 300 301 303 305 306 308 311 313 314 313 313 317 317 318 319 316 317 317 316 313 311 309 308
291 288 286 281 286 288 282 288 291 293 294 294 290 294 298 298 299 299 301 301 301 301 301 301 304 308 310 314 315 314 313 315 316 316 316 316 315 315 312 310 308 306 304 302
288 286 285 281 283 276 287 293 293 293 295 296 296 297 299 299 300 301 303 303 302 302 301 301 302 307 311 312 311 311 313 314 316 316 315 314 312 308 306 305 303 300 300 299
292 286 282 278 279 284 286 291 292 289 290 297 296 297 298 299 297 295 300 302 303 304 304 304 303 308 311 311 310 310 308 310 311 309 309 308 307 305 303 300 298 296 296 295
292 290 281 283 276 274 285 293 298 298 288 297 300 296 297 298 291 294 299 301 301 302 301 305 307 309 310 308 309 307 305 305 306 306 304 305 304 302 299 295 294 291 292 291
285 285 283 283 281 282 292 296 300 286 287 299 302 300 299 293 298 300 299 299 301 302 305 307 308 308 308 307 307 304 303 302 301 300 299 299 299 297 294 292 292 290 290 289
283 282 281 284 281 279 296 298 291 295 299 301 303 301 299 300 299 300 300 301 303 303 304 306 305 302 304 305 304 301 298 298 298 297 295 295 295 294 293 291 291 290 289 286
281 285 282 285 284 294 300 299 301 301 301 302 302 303 302 300 299 300 300 301 302 302 302 303 301 298 299 300 302 297 296 297 296 295 294 293 293 292 292 290 289 287 286 285
288 291 287 288 292 294 297 300 301 303 303 304 304 303 303 301 300 299 299 299 299 299 299 299 299 297 296 297 297 297 297 296 295 293 290 289 286 284 285 285 286 284 284 284
287 291 289 289 293 296 298 299 301 303 304 303 305 303 304 303 301 299 299 299 299 298 298 298 297 295 294 295 295 295 295 294 289 286 285 283 281 281 281 281 282 281 281 283
291 289 286 285 294 294 296 299 301 301 301 304 303 303 303 304 304 301 299 299 298 297 297 294 294 293 292 292 290 290 291 289 285 283 282 280 280 279 279 278 279 282 282 282
Wind_Speed
5 4 10 12 8 3 3 2 4 8 9 4 11 8 7 7 6 8 8 8 8 8 6 8 10 9 10 9 11 10 12 11 8 7 7 3 2 2 1 3 6 5 5 6
1 16 7 8 5 5 4 5 8 11 12 9 6 8 7 9 14 12 11 10 10 6 7 9 9 10 9 11 10 12 11 12 9 8 6 4 2 2 2 1 2 4 6 5
8 5 14 11 6 5 7 6 8 8 6 1 3 5 4 5 4 7 10 10 10 13 11 11 14 12 9 11 11 11 12 10 9 9 3 1 2 2 2 2 2 4 4 5
7 16 5 5 10 8 6 9 12 8 1 6 6 5 5 6 9 10 13 14 13 14 12 10 12 14 14 13 11 12 12 11 9 6 6 6 8 8 5 4 2 5 4 5
10 6 9 11 17 8 10 4 9 11 7 3 3 4 8 5 7 13 15 14 16 15 16 16 17 16 14 13 13 12 12 12 12 11 9 8 8 6 4 3 5 6 6 7
10 3 7 9 7 11 8 4 5 1 3 4 6 7 5 5 8 6 11 15 15 16 17 15 12 11 11 10 11 13 14 14 15 15 16 14 14 9 9 10 9 7 4 6
4 10 3 1 2 2 5 3 3 4 1 7 5 2 9 8 9 10 12 16 15 16 15 15 14 14 14 15 15 14 16 19 18 18 17 18 16 14 15 13 11 8 6 5
10 6 11 6 15 7 7 10 7 6 4 5 2 6 7 11 9 7 10 14 11 15 15 17 19 17 16 17 18 18 19 19 20 19 19 17 17 11 13 13 9 6 8 7
6 6 4 6 9 12 5 6 8 3 3 2 5 6 8 7 9 8 10 8 13 15 16 19 18 18 17 17 20 21 21 20 20 22 18 18 15 16 13 11 7 6 7 7
5 3 5 5 5 6 8 4 2 2 4 6 4 4 6 4 10 5 8 9 10 14 17 18 17 18 18 19 19 18 19 21 21 17 17 14 14 14 12 8 8 8 7 5
6 5 5 5 4 7 2 3 3 4 5 8 8 8 9 10 8 7 8 9 10 10 14 16 19 19 21 18 17 18 18 20 17 18 16 15 15 12 10 12 14 9 7 8
1 1 6 17 14 5 2 5 6 8 7 4 4 12 5 8 8 6 9 10 7 9 13 13 16 17 17 19 18 21 20 20 21 17 18 18 16 16 16 16 18 15 15 12
3 4 4 8 6 2 6 7 8 3 2 15 8 9 4 7 5 6 7 9 8 9 9 10 8 13 17 18 18 18 19 22 20 18 19 18 18 18 21 20 17 16 15 14
6 2 3 2 5 8 7 15 8 12 8 3 13 7 5 7 8 7 7 9 10 6 8 9 11 14 15 16 18 18 19 20 18 19 19 19 19 21 19 15 16 15 15 17
3 3 2 5 6 10 15 17 18 16 12 14 7 11 10 10 10 11 11 6 7 8 8 7 7 11 11 11 13 15 17 15 14 16 17 20 18 15 12 12 12 12 11 12
3 6 1 4 6 2 13 20 19 19 14 9 6 8 8 11 6 6 8 9 9 9 10 11 10 8 9 12 14 12 10 10 14 16 17 13 9 9 9 8 8 8 7 7
5 5 3 5 2 6 8 5 13 17 17 9 12 10 7 7 9 11 13 10 12 13 11 11 11 15 11 12 10 9 7 7 10 11 9 9 8 9 9 9 9 8 9 10
7 6 4 5 1 3 10 3 14 18 20 15 8 6 9 8 9 10 11 12 12 10 10 10 10 10 10 6 5 8 7 8 9 8 8 9 10 10 10 11 9 8 7 9
5 5 2 2 3 7 10 6 2 8 24 23 15 10 9 8 5 7 9 12 16 15 15 13 11 6 9 11 10 10 8 9 11 9 9 9 10 11 10 10 10 8 9 7
5 3 4 3 3 7 18 5 12 12 21 5 7 9 12 6 9 6 11 8 11 11 6 7 6 6 12 11 12 12 10 10 10 10 9 10 9 10 8 8 8 4 6 7
3 1 7 5 5 10 8 1 6 1 8 16 10 10 10 5 12 10 8 10 6 5 6 8 9 11 10 12 13 11 11 9 7 8 9 8 8 8 9 8 7 7 8 10
8 9 5 5 4 10 5 3 8 5 23 15 12 9 9 8 10 7 10 8 7 8 8 8 9 9 9 11 12 11 10 9 10 10 9 9 9 7 7 10 8 9 10 11
5 8 8 10 9 7 5 3 7 7 8 17 9 12 7 10 8 7 6 5 6 8 8 6 11 10 7 7 10 13 8 12 13 12 10 10 10 8 7 9 9 8 9 9
5 4 5 2 8 11 12 12 9 8 6 20 15 11 7 6 7 3 5 7 6 5 6 6 11 11 9 8 9 11 11 12 13 13 11 9 11 10 9 7 6 7 7 7
7 6 6 8 10 7 12 10 8 11 10 11 13 9 7 7 4 2 2 6 7 6 6 7 8 11 10 10 11 10 11 14 13 13 11 10 9 10 11 10 6 6 5 4
2 2 3 5 5 4 8 7 9 8 8 8 10 7 6 5 4 5 4 4 7 9 8 10 10 12 11 11 11 10 10 13 14 12 9 8 8 8 8 10 11 19 17 19
Wind_Direction
200 162 201 189 202 153 150 218 242 255 256 237 226 259 232 199 216 206 211 208 210 216 169 171 182 169 167 161 168 168 163 164 167 185 177 164 203 247 227 167 189 181 181 154
200 233 188 189 185 221 232 248 260 287 259 171 231 231 241 185 219 207 208 207 215 191 171 171 175 174 181 171 177 174 176 170 179 187 195 192 208 264 257 241 285 214 224 164
192 273 172 174 195 213 241 209 256 226 335 143 112 303 258 237 214 203 231 216 209 200 195 186 189 188 177 178 183 184 181 178 186 180 146 119 107 342 298 283 232 227 222 210
216 240 143 173 230 161 255 203 242 261 246 234 157 253 270 232 222 216 222 215 206 202 191 191 188 197 188 188 181 185 184 181 189 182 179 192 220 222 228 228 262 271 220 220
220 174 197 210 224 153 230 190 224 250 224 192 193 113 263 131 233 233 225 220 214 201 194 190 195 200 194 180 181 187 189 190 195 194 195 189 210 214 225 224 230 242 235 218
216 182 161 203 219 188 240 298 296 38 162 210 229 164 257 204 212 221 214 224 209 203 204 205 187 184 195 185 184 185 190 197 198 200 200 200 204 201 206 218 222 230 218 217
251 243 235 146 304 193 152 125 303 304 232 229 222 154 230 237 234 222 212 214 201 197 197 199 189 184 182 189 195 190 191 199 201 207 209 209 209 207 215 219 219 218 222 220
200 289 193 202 207 189 180 167 171 225 211 252 139 222 245 218 228 224 235 229 183 188 193 199 200 196 192 189 194 196 198 205 203 204 210 212 215 218 222 225 226 221 227 231
170 243 265 201 197 175 235 186 202 189 353 40 225 291 314 240 257 252 244 181 190 191 190 198 200 199 198 196 198 199 201 207 207 208 207 211 211 219 223 225 232 231 235 231
224 256 224 256 148 239 208 180 89 12 194 259 261 255 223 271 277 242 252 221 211 199 196 197 197 202 202 205 203 204 209 209 208 207 212 214 213 223 229 225 220 220 224 212
192 230 259 345 177 189 129 233 203 180 157 237 263 256 213 219 249 214 241 229 205 191 205 200 194 199 206 205 201 205 211 215 213 214 210 212 217 215 218 225 236 204 162 173
259 268 211 251 252 297 183 225 202 215 240 235 219 239 196 210 243 213 247 230 236 196 203 202 199 195 198 204 200 200 209 211 213 208 209 209 208 199 201 206 205 180 183 184
337 8 5 329 293 32 236 222 226 184 126 229 223 260 253 248 286 277 258 287 218 201 214 198 180 194 200 201 202 203 205 215 211 207 207 206 205 205 211 222 213 199 202 189
40 92 131 265 321 312 307 319 247 211 219 198 238 249 262 255 227 224 256 248 269 221 194 201 198 203 205 200 201 202 208 213 205 205 205 206 203 208 217 219 219 208 200 199
75 286 159 204 259 339 320 297 276 262 240 219 212 219 233 227 230 226 214 234 238 223 223 211 219 198 196 198 203 206 214 209 196 198 203 208 208 206 204 201 198 202 201 200
188 227 284 270 243 6 311 294 285 274 271 276 260 251 224 236 230 286 236 214 219 230 209 214 203 226 184 196 202 199 203 189 179 192 200 188 167 163 172 168 158 150 151 142
163 139 131 251 358 340 300 332 316 281 261 229 244 239 228 244 230 236 246 219 216 224 222 214 193 201 204 204 192 184 172 146 167 181 171 172 156 162 151 152 148 150 143 135
148 153 183 260 360 225 261 300 304 285 272 249 234 221 231 231 247 231 234 233 231 224 223 230 220 186 196 165 132 120 129 135 136 151 148 142 144 140 139 141 140 127 135 130
176 136 175 215 204 285 285 207 81 34 308 298 234 217 238 261 289 289 229 219 226 227 227 219 214 164 154 151 139 132 132 132 131 139 139 136 143 144 147 142 136 126 120 114
103 55 136 162 197 246 280 193 58 19 284 247 306 286 242 207 250 251 271 227 233 223 213 178 134 127 145 148 141 139 144 134 140 147 138 135 135 134 125 118 114 81 88 100
122 120 221 212 242 278 272 242 103 133 298 315 320 306 289 242 253 217 249 255 226 212 165 123 142 153 153 145 140 139 133 133 127 119 114 113 110 109 107 97 98 99 101 94
170 174 199 201 222 274 225 93 141 180 290 286 293 289 297 284 288 259 250 254 187 160 144 148 132 125 134 141 134 127 113 116 115 111 101 98 95 99 100 106 103 104 109 107
213 183 185 194 209 219 229 258 219 189 235 280 273 279 299 310 311 325 332 268 212 172 145 126 125 117 90 98 127 119 129 123 116 107 105 101 94 89 94 111 110 105 113 117
254 166 227 112 251 262 271 240 230 202 173 276 276 288 306 301 316 315 56 43 13 9 74 89 113 110 97 90 88 114 121 113 111 108 100 93 91 82 69 65 79 104 117 124
216 160 226 260 285 299 279 248 242 227 232 249 280 264 274 289 345 30 72 96 90 56 39 69 96 97 88 93 95 104 112 113 104 99 98 92 88 90 85 66 59 77 44 108
25 167 213 239 38 281 271 328 312 226 242 241 252 301 300 278 318 63 39 74 92 84 80 74 73 86 88 87 83 84 99 111 111 101 95 99 103 102 102 102 88 70 82 88